This is the latest recevied weather packets stored in our database for station/object SP1BMW-13. If no packets are shown the sender has not sent any weather packets the latest 10 day(s).
| Time | Temp. | Humidity | Pressure | Rain* | Wind** | Luminosity | Snow |
|---|---|---|---|---|---|---|---|
| 1787754314 | 25° C | 43% | 1020.8 hPa | 0 mm | 0.89 m/s, 74° | 432 W/m² | - |
| 1787754254 | 24.44° C | 44% | 1020.5 hPa | 0 mm | 0 m/s | 434 W/m² | - |
| 1787754194 | 24.44° C | 46% | 1020.5 hPa | 0 mm | 0 m/s | 434 W/m² | - |
| 1787754134 | 24.44° C | 42% | 1020.6 hPa | 0 mm | 1.34 m/s, 52° | 433 W/m² | - |
| 1787754074 | 24.44° C | 40% | 1020.8 hPa | 0 mm | 0.89 m/s, 49° | 438 W/m² | - |
| 1787754014 | 24.44° C | 42% | 1020.7 hPa | 0 mm | 0.89 m/s, 6° | 445 W/m² | - |
| 1787753954 | 24.44° C | 42% | 1020.8 hPa | 0 mm | 1.34 m/s, 35° | 450 W/m² | - |
| 1787753894 | 24.44° C | 42% | 1020.7 hPa | 0 mm | 0.45 m/s, 25° | 455 W/m² | - |
| 1787753834 | 24.44° C | 43% | 1020.7 hPa | 0 mm | 1.34 m/s, 65° | 461 W/m² | - |
| 1787753774 | 24.44° C | 44% | 1020.7 hPa | 0 mm | 0.45 m/s, 355° | 464 W/m² | - |
| 1787753714 | 24.44° C | 44% | 1020.7 hPa | 0 mm | 0.89 m/s, 10° | 456 W/m² | - |
| 1787753654 | 23.89° C | 45% | 1020.8 hPa | 0 mm | 0.45 m/s, 36° | 438 W/m² | - |
| 1787753594 | 23.89° C | 42% | 1020.8 hPa | 0 mm | 1.34 m/s, 56° | 454 W/m² | - |
| 1787753534 | 23.89° C | 43% | 1020.9 hPa | 0 mm | 0.89 m/s, 50° | 453 W/m² | - |
| 1787753473 | 23.89° C | 45% | 1020.8 hPa | 0 mm | 1.79 m/s, 23° | 490 W/m² | - |
| 1787753413 | 23.33° C | 46% | 1020.7 hPa | 0 mm | 0.89 m/s, 44° | 458 W/m² | - |
| 1787753353 | 23.33° C | 46% | 1020.9 hPa | 0 mm | 0 m/s | 446 W/m² | - |
| 1787753294 | 23.33° C | 46% | 1020.9 hPa | 0 mm | 0 m/s | 510 W/m² | - |
| 1787753233 | 22.78° C | 46% | 1020.9 hPa | 0 mm | 0.45 m/s, 121° | 521 W/m² | - |
| 1787753174 | 22.78° C | 46% | 1020.9 hPa | 0 mm | 0.45 m/s, 34° | 523 W/m² | - |
| 1787753114 | 22.78° C | 45% | 1020.7 hPa | 0 mm | 0.89 m/s, 54° | 156 W/m² | - |
| 1787753054 | 22.78° C | 47% | 1020.8 hPa | 0 mm | 0.45 m/s, 121° | 142 W/m² | - |
| 1787752994 | 22.78° C | 46% | 1020.7 hPa | 0 mm | 0.89 m/s, 39° | 134 W/m² | - |
| 1787752934 | 22.78° C | 48% | 1020.8 hPa | 0 mm | 0.45 m/s, 83° | 128 W/m² | - |
| 1787752874 | 22.78° C | 46% | 1020.8 hPa | 0 mm | 0.45 m/s, 45° | 126 W/m² | - |
* Rain latest hour (hover to see other rain measurements)
** Current wind speed in m/s (hover to see current wind gust speed)